N5XJB Weather Reports


time (UTC)temp
F
wind
direction
speed
knots
gust
knots
rain 1hr
in
rain 24hr
in
rain mn
in
humidity
%
barometer
mb
20260505223223 84 274 1.7 1.7 0.00 0.00 0.00 73 1007.7
20260505222719 84 295 0.0 0.0 0.00 0.00 0.00 73 1007.7
20260505222215 84 73 2.6 2.6 0.00 0.00 0.00 73 1007.7
20260505221713 84 186 2.6 3.5 0.00 0.00 0.00 74 1008.0
20260505221209 84 57 1.7 1.7 0.00 0.00 0.00 74 1008.0
20260505220707 84 126 3.5 4.3 0.00 0.00 0.00 73 1007.7
20260505220204 85 281 0.0 0.0 0.00 0.00 0.00 73 1007.7
20260505215702 85 93 1.7 1.7 0.00 0.00 0.00 72 1008.0
20260505215200 84 66 2.6 2.6 0.00 0.00 0.00 73 1008.0
20260505214657 84 120 2.6 2.6 0.00 0.00 0.00 74 1008.3
20260505214154 84 158 2.6 2.6 0.00 0.00 0.00 75 1008.0
20260505213652 84 318 0.9 0.9 0.00 0.00 0.00 74 1008.3
20260505213148 85 186 1.7 1.7 0.00 0.00 0.00 73 1008.3
20260505212644 85 160 1.7 1.7 0.00 0.00 0.00 73 1008.3
20260505212142 85 206 1.7 1.7 0.00 0.00 0.00 73 1008.3
20260505211639 86 112 1.7 1.7 0.00 0.00 0.00 72 1008.3
20260505211136 85 174 1.7 1.7 0.00 0.00 0.00 73 1008.3
20260505210633 85 94 1.7 1.7 0.00 0.00 0.00 73 1008.7
20260505210130 85 114 1.7 1.7 0.00 0.00 0.00 72 1008.7
20260505205627 85 129 2.6 3.5 0.00 0.00 0.00 72 1008.7
20260505205125 86 262 1.7 1.7 0.00 0.00 0.00 71 1008.7
20260505204622 86 64 1.7 1.7 0.00 0.00 0.00 69 1008.7
20260505204119 86 54 1.7 1.7 0.00 0.00 0.00 70 1008.7
20260505203616 86 114 1.7 1.7 0.00 0.00 0.00 70 1008.7
20260505203113 86 307 1.7 1.7 0.00 0.00 0.00 70 1008.7
20260505202609 85 198 0.0 0.0 0.00 0.00 0.00 73 1009.0
20260505202105 86 272 1.7 1.7 0.00 0.00 0.00 71 1009.3
20260505201602 85 99 1.7 1.7 0.00 0.00 0.00 72 1009.0
20260505201100 86 66 1.7 1.7 0.00 0.00 0.00 72 1009.3
20260505200557 85 325 1.7 1.7 0.00 0.00 0.00 72 1009.3
20260505200054 84 324 2.6 2.6 0.00 0.00 0.00 73 1009.3
20260505195550 84 101 3.5 3.5 0.00 0.00 0.00 73 1009.7
20260505195048 84 282 1.7 1.7 0.00 0.00 0.00 74 1009.7
20260505194545 84 312 1.7 1.7 0.00 0.00 0.00 74 1009.7
20260505194040 85 288 2.6 3.5 0.00 0.00 0.00 73 1009.7
20260505193537 84 127 1.7 1.7 0.00 0.00 0.00 74 1009.7
20260505193035 85 90 2.6 2.6 0.00 0.00 0.00 73 1009.7
20260505192533 84 306 1.7 1.7 0.00 0.00 0.00 74 1009.7
20260505192030 84 294 1.7 1.7 0.00 0.00 0.00 75 1009.7
20260505191528 83 127 2.6 3.5 0.00 0.00 0.00 76 1009.7
20260505191026 84 132 2.6 2.6 0.00 0.00 0.00 75 1009.7
20260505190520 84 106 0.0 0.0 0.00 0.00 0.00 76 1009.7
20260505190017 83 126 1.7 1.7 0.00 0.00 0.00 76 1010.0
20260505185514 83 293 1.7 1.7 0.00 0.00 0.00 77 1010.0
20260505185010 83 148 2.6 2.6 0.00 0.00 0.00 76 1010.0
20260505184507 84 287 0.9 0.9 0.00 0.00 0.00 75 1010.0
20260505184003 83 170 0.9 0.9 0.00 0.00 0.00 75 1010.0
20260505183501 83 301 1.7 1.7 0.00 0.00 0.00 75 1010.0
20260505182957 83 156 1.7 1.7 0.00 0.00 0.00 75 1010.0
20260505182454 83 252 1.7 1.7 0.00 0.00 0.00 76 1010.0
20260505181950 82 198 1.7 1.7 0.00 0.00 0.00 77 1010.0
20260505181448 82 258 1.7 1.7 0.00 0.00 0.00 77 1010.0
20260505180945 82 36 1.7 1.7 0.00 0.00 0.00 79 1010.4
20260505180441 82 132 1.7 1.7 0.00 0.00 0.00 79 1010.0
20260505175938 82 168 0.9 0.9 0.00 0.00 0.00 78 1010.4
20260505175434 81 12 1.7 1.7 0.00 0.00 0.00 79 1010.0
20260505174930 81 223 0.0 0.0 0.00 0.00 0.00 80 1010.4
20260505174428 81 180 0.0 0.0 0.00 0.00 0.00 80 1010.4
20260505173924 80 306 1.7 1.7 0.00 0.00 0.00 81 1010.7
20260505173420 81 48 1.7 1.7 0.00 0.00 0.00 81 1010.4
20260505172918 81 18 1.7 1.7 0.00 0.00 0.00 79 1010.4
20260505172416 81 18 1.7 1.7 0.00 0.00 0.00 79 1010.4
20260505171915 81 222 1.7 1.7 0.00 0.00 0.00 79 1010.4
20260505171412 82 348 0.0 0.0 0.00 0.00 0.00 79 1010.7
20260505170909 81 282 2.6 2.6 0.00 0.00 0.00 79 1010.7
20260505170405 81 145 1.7 1.7 0.00 0.00 0.00 79 1010.7
20260505165901 81 65 1.7 1.7 0.00 0.00 0.00 80 1010.7
20260505165356 80 73 0.0 0.0 0.00 0.00 0.00 81 1010.7
20260505164852 80 258 0.0 0.0 0.00 0.00 0.00 81 1010.7
20260505164349 79 318 1.7 1.7 0.00 0.00 0.00 82 1010.7
20260505163847 79 288 1.7 1.7 0.00 0.00 0.00 83 1010.7
20260505163346 79 170 1.7 1.7 0.00 0.00 0.00 83 1010.7
20260505162844 79 252 2.6 2.6 0.00 0.00 0.00 84 1010.7
20260505162340 79 292 1.7 1.7 0.00 0.00 0.00 84 1010.7
20260505161837 79 120 2.6 2.6 0.00 0.00 0.00 84 1010.4
20260505161334 79 264 0.9 0.9 0.00 0.00 0.00 83 1010.7
20260505160831 79 293 1.7 1.7 0.00 0.00 0.00 83 1010.7
20260505160329 79 174 2.6 2.6 0.00 0.00 0.00 83 1010.4
20260505153302 78 89 1.7 1.7 0.00 0.00 0.00 85 1010.4
20260505152759 78 151 0.0 0.0 0.00 0.00 0.00 85 1010.4
20260505152255 78 174 1.7 1.7 0.00 0.00 0.00 85 1010.4
20260505151750 78 133 1.7 1.7 0.00 0.00 0.00 85 1010.4
20260505151248 78 162 1.7 1.7 0.00 0.00 0.00 86 1010.4
20260505150744 78 174 0.0 0.0 0.00 0.00 0.00 86 1010.4
20260505150241 78 180 0.0 0.0 0.00 0.00 0.00 85 1010.4
20260505140206 77 162 0.9 0.9 0.00 0.00 0.00 87 1009.7
20260505130130 75 285 1.7 1.7 0.00 0.00 0.00 90 1010.0
20260505124619 74 156 1.7 1.7 0.00 0.00 0.00 91 1009.7
20260505124116 74 115 0.0 0.0 0.00 0.00 0.00 91 1010.0
20260505123612 74 137 0.0 0.0 0.00 0.00 0.00 91 1010.0
20260505123109 73 137 0.0 0.0 0.00 0.00 0.00 92 1010.0
20260505122605 73 140 0.0 0.0 0.00 0.00 0.00 92 1009.7
20260505122103 73 101 0.9 0.9 0.00 0.00 0.00 92 1009.7
20260505121559 73 101 0.0 0.0 0.00 0.00 0.00 92 1009.7
20260505121056 73 264 0.9 0.9 0.00 0.00 0.00 93 1009.7
20260505120552 73 156 1.7 1.7 0.00 0.00 0.00 93 1009.3
20260505120048 73 136 0.0 0.0 0.00 0.00 0.00 93 1009.7
20260505115542 72 132 0.0 0.0 0.00 0.00 0.00 93 1009.3
20260505115040 72 132 0.0 0.0 0.00 0.00 0.00 93 1009.3
20260505114537 72 105 0.0 0.0 0.00 0.00 0.00 93 1009.7
20260505114033 72 127 0.9 0.9 0.00 0.00 0.00 93 1009.7
20260505113530 72 120 0.0 0.0 0.00 0.00 0.00 93 1009.7
20260505113026 72 120 0.9 0.9 0.00 0.00 0.00 93 1009.7
20260505112523 72 150 1.7 1.7 0.00 0.00 0.00 92 1009.7
20260505112021 72 149 0.0 0.0 0.00 0.00 0.00 92 1009.3
20260505111514 72 149 0.0 0.0 0.00 0.00 0.00 92 1009.3
20260505111011 72 156 0.0 0.0 0.00 0.00 0.00 92 1009.7
20260505110508 72 95 0.0 0.0 0.00 0.00 0.00 92 1009.7
20260505101939 71 186 0.0 0.0 0.00 0.00 0.00 93 1009.7
20260505101432 71 180 0.0 0.0 0.00 0.00 0.00 93 1009.3
20260505100929 71 180 0.0 0.0 0.00 0.00 0.00 93 1009.7
20260505100426 71 186 1.7 1.7 0.00 0.00 0.00 93 1009.7
20260505095921 71 186 1.7 1.7 0.00 0.00 0.00 93 1009.7
20260505095419 71 216 0.0 0.0 0.00 0.00 0.00 93 1009.7
20260505094914 71 216 0.0 0.0 0.00 0.00 0.00 93 1009.7
20260505094412 71 212 0.9 0.9 0.00 0.00 0.00 92 1009.7
20260505093908 71 180 1.7 1.7 0.00 0.00 0.00 92 1009.7
20260505093405 71 180 0.0 0.0 0.00 0.00 0.00 92 1009.7
20260505092902 71 144 0.0 0.0 0.00 0.00 0.00 92 1009.7
20260505092400 72 144 0.0 0.0 0.00 0.00 0.00 91 1009.7
20260505091857 72 168 0.0 0.0 0.00 0.00 0.00 91 1010.0
20260505091355 72 128 1.7 1.7 0.00 0.00 0.00 91 1009.7
20260505090853 72 82 1.7 1.7 0.00 0.00 0.00 91 1010.0
20260505090351 72 354 0.0 0.0 0.00 0.00 0.00 91 1009.7
20260505085848 72 126 0.9 0.9 0.00 0.00 0.00 91 1009.7
20260505085346 71 102 1.7 1.7 0.00 0.00 0.00 91 1010.0
20260505084843 71 98 0.0 0.0 0.00 0.00 0.00 91 1009.7
20260505084341 71 192 1.7 1.7 0.00 0.00 0.00 91 1010.0
20260505083838 71 120 0.0 0.0 0.00 0.00 0.00 91 1010.0
20260505083336 71 108 0.9 0.9 0.00 0.00 0.00 91 1010.0
20260505082832 71 38 1.7 1.7 0.00 0.00 0.00 91 1010.0
20260505082328 71 38 0.0 0.0 0.00 0.00 0.00 91 1010.0
20260505081825 72 37 0.0 0.0 0.00 0.00 0.00 91 1010.4
20260505081322 72 37 0.0 0.0 0.00 0.00 0.00 90 1010.4
20260505080819 72 138 1.7 1.7 0.00 0.00 0.00 90 1010.4
20260505080314 72 120 0.0 0.0 0.00 0.00 0.00 90 1010.4
20260505075810 72 66 0.0 0.0 0.00 0.00 0.00 90 1010.4
20260505075307 72 147 1.7 1.7 0.00 0.00 0.00 90 1010.4
20260505074804 72 180 0.0 0.0 0.00 0.00 0.00 89 1010.7
20260505074302 72 180 0.0 0.0 0.00 0.00 0.00 89 1010.7
20260505073759 72 150 0.0 0.0 0.00 0.00 0.00 89 1010.7
20260505073257 72 282 1.7 1.7 0.00 0.00 0.00 89 1010.4
20260505072753 72 180 0.9 0.9 0.00 0.00 0.00 89 1010.4
20260505072250 72 131 1.7 1.7 0.00 0.00 0.00 89 1010.7
20260505071746 72 270 0.0 0.0 0.00 0.00 0.00 88 1010.7
20260505071242 72 186 0.9 0.9 0.00 0.00 0.00 88 1010.7
20260505070740 72 212 1.7 1.7 0.00 0.00 0.00 88 1010.7
20260505070236 72 306 0.0 0.0 0.00 0.00 0.00 88 1010.7
20260505065732 72 186 0.9 0.9 0.00 0.00 0.00 88 1010.7
20260505065229 72 284 0.0 0.0 0.00 0.00 0.00 88 1010.7
20260505064726 72 240 0.0 0.0 0.00 0.00 0.00 87 1010.7
20260505064224 72 140 1.7 1.7 0.00 0.00 0.00 87 1010.7
20260505063721 72 204 0.0 0.0 0.00 0.00 0.00 87 1010.7
20260505063217 72 194 1.7 1.7 0.00 0.00 0.00 87 1011.0
20260505062713 72 137 0.0 0.0 0.00 0.00 0.00 87 1011.0
20260505062211 72 133 1.7 1.7 0.00 0.00 0.00 87 1011.4
20260505061708 72 180 0.0 0.0 0.00 0.00 0.00 87 1011.4
20260505061206 72 180 0.0 0.0 0.00 0.00 0.00 87 1011.4
20260505060703 72 288 1.7 1.7 0.00 0.00 0.00 87 1011.4
20260505060200 72 331 0.0 0.0 0.00 0.00 0.00 87 1011.4
20260505055655 72 331 1.7 1.7 0.00 0.00 0.00 86 1011.4
20260505055152 72 230 0.0 0.0 0.00 0.00 0.00 86 1011.4
20260505054649 72 127 0.0 0.0 0.00 0.00 0.00 86 1011.0
20260505054147 72 128 0.9 0.9 0.00 0.00 0.00 86 1011.0
20260505053645 72 168 0.0 0.0 0.00 0.00 0.00 86 1011.7
20260505053141 72 153 0.0 0.0 0.00 0.00 0.00 85 1011.4
20260505052638 72 198 0.0 0.0 0.00 0.00 0.00 85 1011.7
20260505052135 72 264 0.0 0.0 0.00 0.00 0.00 85 1011.7
20260505051632 72 264 0.0 0.0 0.00 0.00 0.00 85 1011.7
20260505051130 72 156 0.0 0.0 0.00 0.00 0.00 84 1011.7
20260505050628 72 300 0.0 0.0 0.00 0.00 0.00 84 1011.7
20260505050126 72 198 1.7 1.7 0.00 0.00 0.00 84 1011.7
20260505041555 73 180 0.0 0.0 0.00 0.00 0.00 82 1011.4
20260505041053 73 174 1.7 1.7 0.00 0.00 0.00 81 1011.4
20260505040550 73 122 0.0 0.0 0.00 0.00 0.00 81 1011.7
20260505040047 73 120 0.0 0.0 0.00 0.00 0.00 81 1012.1
20260505035543 73 132 1.7 1.7 0.00 0.00 0.00 81 1012.1
20260505035040 73 64 0.9 0.9 0.00 0.00 0.00 81 1011.7
20260505034536 73 58 1.7 1.7 0.00 0.00 0.00 80 1012.1
20260505034033 74 144 2.6 2.6 0.00 0.00 0.00 80 1012.4
20260505033530 74 198 1.7 1.7 0.00 0.00 0.00 80 1012.1
20260505033029 74 120 2.6 2.6 0.00 0.00 0.00 79 1012.1
20260505032526 74 95 2.6 3.5 0.00 0.00 0.00 79 1012.1
20260505032022 74 256 1.7 1.7 0.00 0.00 0.00 79 1012.1
20260505031520 74 120 1.7 1.7 0.00 0.00 0.00 79 1011.7
20260505031016 74 147 1.7 1.7 0.00 0.00 0.00 78 1011.7
20260505030513 74 84 1.7 1.7 0.00 0.00 0.00 78 1011.7
20260505030009 74 144 1.7 1.7 0.00 0.00 0.00 78 1011.7
20260505025505 74 301 1.7 1.7 0.00 0.00 0.00 78 1012.4
20260505025004 74 207 1.7 1.7 0.00 0.00 0.00 78 1012.1
20260505024500 74 286 1.7 1.7 0.00 0.00 0.00 77 1012.1
20260505023958 74 288 1.7 1.7 0.00 0.00 0.00 77 1011.7
20260505023454 75 91 0.9 0.9 0.00 0.00 0.00 77 1011.7
20260505022952 75 270 0.9 0.9 0.00 0.00 0.00 77 1011.7
20260505022449 75 113 2.6 2.6 0.00 0.00 0.00 76 1011.7
20260505021947 75 292 0.0 0.0 0.00 0.00 0.00 76 1012.1
20260505021443 75 180 2.6 2.6 0.00 0.00 0.00 76 1011.7
20260505020939 75 152 1.7 1.7 0.00 0.00 0.00 76 1012.1
20260505020434 75 180 1.7 1.7 0.00 0.00 0.00 76 1011.7
20260505015931 75 186 1.7 1.7 0.00 0.00 0.00 75 1011.4
20260505015428 75 133 1.7 1.7 0.00 0.00 0.00 75 1011.7
20260505014926 75 103 1.7 1.7 0.00 0.00 0.00 75 1011.7
20260505014422 76 306 2.6 2.6 0.00 0.00 0.00 75 1011.4
20260505013919 76 294 1.7 1.7 0.00 0.00 0.00 75 1011.7
20260505013416 76 150 0.9 0.9 0.00 0.00 0.00 74 1011.4
20260505012914 76 153 2.6 3.5 0.00 0.00 0.00 74 1011.4
20260505012412 76 291 0.0 0.0 0.00 0.00 0.00 74 1011.0
20260505011908 76 129 0.9 0.9 0.00 0.00 0.00 74 1011.4
20260505011405 76 122 0.0 0.0 0.00 0.00 0.00 74 1011.4
20260505010901 76 156 0.0 0.0 0.00 0.00 0.00 74 1011.4
20260505010357 76 180 0.9 0.9 0.00 0.00 0.00 73 1011.4
20260505005853 76 276 0.0 0.0 0.00 0.00 0.00 73 1011.4
20260505005350 76 204 0.0 0.0 0.00 0.00 0.00 72 1011.4
20260505004848 77 300 0.9 0.9 0.00 0.00 0.00 72 1011.4
20260505004344 77 121 0.0 0.0 0.00 0.00 0.00 72 1011.4
20260505003841 77 120 0.0 0.0 0.00 0.00 0.00 72 1011.0
20260505003338 77 79 1.7 1.7 0.00 0.00 0.00 72 1011.0
20260505002834 77 77 1.7 1.7 0.00 0.00 0.00 71 1011.0
20260505002331 78 108 0.9 0.9 0.00 0.00 0.00 71 1011.0
20260505001830 78 127 0.0 0.0 0.00 0.00 0.00 70 1011.0
20260505001326 78 132 0.0 0.0 0.00 0.00 0.00 70 1011.4
20260505000824 78 132 0.0 0.0 0.00 0.00 0.00 70 1011.4
20260505000321 78 270 0.0 0.0 0.00 0.00 0.00 69 1011.4
20260504235818 78 94 1.7 1.7 0.00 0.00 0.00 68 1011.4
20260504235315 78 114 1.7 1.7 0.00 0.00 0.00 68 1011.4
20260504234811 78 156 0.0 0.0 0.00 0.00 0.00 68 1011.4
20260504234309 78 186 3.5 3.5 0.00 0.00 0.00 68 1011.4
20260504233805 78 206 1.7 1.7 0.00 0.00 0.00 68 1011.7
20260504233301 79 168 1.7 1.7 0.00 0.00 0.00 67 1011.4
20260504232758 79 282 1.7 1.7 0.00 0.00 0.00 66 1011.4
20260504232255 79 115 1.7 1.7 0.00 0.00 0.00 65 1011.7
20260504231752 79 116 1.7 1.7 0.00 0.00 0.00 65 1011.7
20260504231248 79 96 4.3 5.2 0.00 0.00 0.00 66 1011.7
20260504230744 79 126 0.0 0.0 0.00 0.00 0.00 65 1011.7
20260504230243 80 115 1.7 1.7 0.00 0.00 0.00 64 1011.7
20260504225741 80 282 0.0 0.0 0.00 0.00 0.00 64 1012.1
20260504225237 80 132 1.7 1.7 0.00 0.00 0.00 64 1011.7
20260504224735 80 143 1.7 1.7 0.00 0.00 0.00 64 1012.1
20260504224232 80 111 1.7 1.7 0.00 0.00 0.00 64 1012.1
20260504223728 80 61 1.7 1.7 0.00 0.00 0.00 64 1012.1